Location: Rosenheim
(47.8408°N, 12.2113°E)
Time: 03:51:54
(UTC+01:00)

ISS - Pass Details

Date: 11 January 2018
Orbit: 402 x 407 km, 51.6° (Epoch: 21 January)

Event Time Altitude Azimuth Distance (km) Brightness Sun altitude
Exits shadow 07:13:43 - 281° (WNW) 1,526 -1.6 -7.4°
Reaches altitude 10° 07:13:52 10° 280° (W) 1,467 -1.6 -7.3°
Maximum altitude 07:16:50 31° 216° (SW) 736 -2.6 -6.9°
Drops below altitude 10° 07:19:47 10° 152° (SSE) 1,462 -0.1 -6.4°
Sets 07:21:59 0° 142° (SE) 2,319 1.4 -6.1°
